Regional Weather Roundup
Issued by NWS

Home | Current Version | Previous Version | Text Only | Print | Product List | Glossary On
Versions: 1 2 3 4 5 6 7 8 9 10 11 12 13 14 15 16 17 18 19 20 21 22 23 24 25 26 27 28 29 30 31 32 33 34 35 36 37 38 39 40 41 42 43 44 45 46 47 48 49 50
000
ASUS43 KLMK 170310
RWRKY
KENTUCKY REGIONAL WEATHER ROUNDUP
NATIONAL WEATHER SERVICE LOUISVILLE KY
1000 PM EST MON JAN 16 2017

NOTE "FAIR" INDICATES FEW OR NO CLOUDS BELOW 12,000 FEET
WITH NO SIGNIFICANT WEATHER AND/OR OBSTRUCTIONS TO VISIBILITY.

KYZ001>023-026-027-061>063-070>075-170400-
WESTERN AND SOUTH CENTRAL KENTUCKY

CITY           SKY/WX    TMP DP  RH WIND       PRES   REMARKS
PADUCAH        LGT RAIN  63  58  83 SW14G23   29.96F
HENDERSON      CLOUDY    57  54  88 S14       29.97F
OWENSBORO      LGT RAIN  58  55  90 S8        30.01R
HOPKINSVILLE   CLOUDY    64  58  80 S12G21    30.01F
BOWLING GREEN  MOCLDY    65  51  60 S10       30.05F
GLASGOW        CLOUDY    62  51  68 S7        30.06F
$$

KYZ024-025-028>034-038-045-046-053-170400-
NORTH CENTRAL KENTUCKY

CITY           SKY/WX    TMP DP  RH WIND       PRES   REMARKS
LOUISVILLE/SDF CLOUDY    55  51  86 SE8       30.02F
LOUISVILLE/LOU CLOUDY    58  52  80 SE5       30.03F
FORT KNOX      CLOUDY    54  54 100 SE7       30.01F
$$

KYZ035>037-039>044-047>052-055>060-089>105-170400-
NORTHEAST KENTUCKY

CITY           SKY/WX    TMP DP  RH WIND       PRES   REMARKS
LEXINGTON      CLOUDY    58  52  80 SE9       30.09F
COVINGTON      CLOUDY    51  51 100 SE8       30.06F FOG
FRANKFORT      CLOUDY    58  52  80 S7        30.06F
$$

KYZ054-064>069-076>088-106>120-170400-
SOUTHEAST KENTUCKY

CITY           SKY/WX    TMP DP  RH WIND       PRES   REMARKS
JACKSON        CLOUDY    60  50  69 VRB3      30.14F
LONDON         CLOUDY    59  50  72 S8        30.15F
SOMERSET       MOCLDY    59  52  77 S6        30.13F
MIDDLESBORO    MOCLDY    50  50 100 CALM      30.20S
MONTICELLO     CLOUDY    61  53  75 SE8       30.14F
$$





USA.gov is the U.S. government's official web portal to all federal, state and local government web resources and services.